Regional Weather Roundup
Issued by NWS

Home | Current Version | Previous Version | Text Only | Print | Product List | Glossary Off
Versions: 1 2 3 4 5 6 7 8 9 10 11 12 13 14 15 16 17 18 19 20 21 22 23 24 25 26 27 28 29 30 31 32 33 34 35 36 37 38 39 40 41 42 43 44 45 46 47 48 49 50

000
ASUS43 KDTX 050810
RWRMI
MICHIGAN HOURLY REGIONAL WEATHER ROUNDUP
NATIONAL WEATHER SERVICE DETROIT/PONTIAC MI
400 AM EDT TUE MAY 05 2015

NOTE: "FAIR" INDICATES FEW OR NO CLOUDS BELOW 12,000 FEET WITH NO
SIGNIFICANT WEATHER AND/OR OBSTRUCTION TO VISIBILITY.

MIZ047>049-052>055-059>063-066>070-074>076-081>083-050900-
SOUTHEAST LOWER MICHIGAN

CITY           SKY/WX    TMP DP  RH WIND       PRES   REMARKS
ADRIAN         PTCLDY    57  54  89 NE8       30.21R
ALMA           MOCLDY    52  40  63 N6        30.24S
ANN ARBOR      PTCLDY    57  38  48 NE10      30.21R
BAD AXE        PTCLDY    44  37  73 N6        30.27S
CARO           CLOUDY    49  40  72 CALM      30.25R
DETROIT CITY   CLEAR     57  38  48 NE9       30.23R
DETROIT        CLOUDY    60  37  42 N8        30.22R
FLINT          CLEAR     55  38  52 E8        30.24R
GROSSE ILE     PTCLDY    57  45  62 NE12      30.20R
HILLSDALE      PTCLDY    55  55  99 CALM      30.19S
HOWELL         PTCLDY    56  41  57 NE5       30.23R

CITY           SKY/WX    TMP DP  RH WIND       PRES   REMARKS
JACKSON        MOCLDY    56  45  66 NE5       30.20S
LAMBERTVILLE   CLOUDY    61  59  94 NE5       30.20R FOG
LANSING        MOCLDY    54  44  69 NE9       30.22S
LAPEER         MOCLDY    50  34  54 E5        30.25R
MASON          MOCLDY    55  47  75 E6        30.21S
MONROE         PTCLDY    57  46  67 NE6       30.19R
PONTIAC        CLEAR     54  36  50 NE8       30.23R
PORT HOPE        N/A     47  37  68 NW9       30.25S
PORT HURON     CLOUDY    50  37  62 N7        30.26R
TRI CITIES     CLOUDY    53  45  74 NE8       30.25S
MIDLAND        FAIR      51  37  57 N3        30.24F
TROY           CLEAR     56  36  46 NE8       30.25R
SAGINAW HB     CLOUDY    50  43  76 NE7       30.25R
$$
MIZ043>046-050>051-056>058-064>065-071>073-077>080-050900-
SOUTHWEST LOWER MICHIGAN

CITY           SKY/WX    TMP DP  RH WIND       PRES   REMARKS
BATTLE CREEK   CLOUDY    57  39  51 NE7       30.20S
BENTON HARBOR  MOCLDY    54  50  86 E8        30.17R
BIG RAPIDS     CLOUDY    47  37  69 CALM      30.24S
COLDWATER      CLOUDY    55  52  90 CALM      30.18S
FREMONT        FAIR      52  35  51 E5        30.23R
HOLLAND        CLOUDY    56  39  53 NE8       30.20F
GRAND RAPIDS   CLOUDY    55  38  52 NE10      30.21S
IONIA          FAIR      54  41  62 NE8       30.21F
KALAMAZOO      MOCLDY    57  42  57 E3        30.19F
LUDINGTON      CLOUDY    51  39  63 E3        30.24S
MARSHALL       MOCLDY    56  42  59 NW3       30.19S
MOUNT PLEASANT MOCLDY    50  38  62 N3        30.24S
MUSKEGON       CLOUDY    54  36  50 E7        30.22S
SOUTH HAVEN    MOCLDY    56  46  69 E3        30.17F
$$
MIZ016>042-050900-
NORTHERN LOWER MICHIGAN

CITY           SKY/WX    TMP DP  RH WIND       PRES   REMARKS
ALPENA         PTCLDY    44  35  70 NW7       30.27S
BEAVER ISLAND  PTCLDY    32  31  98 CALM      30.30R
BELLAIRE       PTCLDY    35  33  94 CALM      30.28S
CADILLAC       MOCLDY    40  32  71 CALM      30.25S
CHARLEVOIX     PTCLDY    38  35  86 CALM      30.31S
FRANKFORT      CLOUDY    52  31  45 E8        30.26S
GAYLORD        MOCLDY    44  35  70 NE3       30.27S
GRAYLING       MOCLDY    32  29  88 N3        30.26S
HARBOR SPRINGS PTCLDY    36  33  90 NE3       30.29R
MANISTEE       CLOUDY    48  32  53 SE6       30.26R
OSCODA         PTCLDY    40  34  81 CALM      30.27R
ROGERS CITY    PTCLDY    40  36  84 W5        30.29S
TRAVERSE CITY  MOCLDY    37  34  89 CALM      30.27R
$$
MIZ007>008-015-050900-
EASTERN UPPER MICHIGAN

CITY           SKY/WX    TMP DP  RH WIND       PRES   REMARKS
KINROSS        CLEAR     37  36  93 N6        30.28R WCI  33
MACKINAC ISLAN CLEAR     40  35  81 N6        30.29R
NEWBERRY       CLEAR     33  32  96 CALM      30.30R
S. S. MARIE    CLEAR     37  33  85 S6        30.28R WCI  32
MUNISING         N/A     36  31  82 S7        30.29R WCI  30
$$
MIZ004>006-011>014-085-050900-
CENTRAL UPPER MICHIGAN

CITY           SKY/WX    TMP DP  RH WIND       PRES   REMARKS
MANISTIQUE     CLEAR     32  31  95 CALM      30.30R
ESCANABA       PTCLDY    36  30  80 CALM      30.30S
MENOMINEE      MOCLDY    45  34  65 NW3       30.28S
SAWYER-GWINN   CLEAR     35  31  87 CALM      30.29R
$$
MIZ001>003-009>011-084-050900-
WESTERN UPPER MICHIGAN

CITY           SKY/WX    TMP DP  RH WIND       PRES   REMARKS
IRON MOUNTAIN  CLEAR     38  34  85 CALM      30.29R
HOUGHTON       CLEAR     38  32  79 W5        30.27S WCI  34
COPPER HARBOR    N/A     48  33  56 SW7       30.26R
IRONWOOD       CLEAR     36  30  80 CALM      30.26R
$$

ABBREVIATIONS USED IN REMARKS
   TC - TEMPERATURE IN CELSIUS
  WCI - WIND CHILL INDEX
   HX - HEAT INDEX
  VSB - VISIBILITY




USA.gov is the U.S. government's official web portal to all federal, state and local government web resources and services.